Year,Month,Day,Hour,Minute,Value (Times are PST for temperature in C)
2015,06,21,00,00,6.40
2015,06,21,00,02,5.80
2015,06,21,00,03,5.80
2015,06,21,00,04,5.80
2015,06,21,00,05,5.80
2015,06,21,00,06,5.80
2015,06,21,00,07,5.80
2015,06,21,00,08,5.80
2015,06,21,00,09,5.80
2015,06,21,00,10,5.80
2015,06,21,00,11,5.80
2015,06,21,00,12,5.80
2015,06,21,00,13,5.80
2015,06,21,00,14,5.80
2015,06,21,00,15,5.80
2015,06,21,00,16,5.80
2015,06,21,00,17,5.80
2015,06,21,00,18,5.80
2015,06,21,00,19,5.80
2015,06,21,00,20,5.80
2015,06,21,00,21,5.80
2015,06,21,00,22,5.80
2015,06,21,00,23,5.80
2015,06,21,00,24,5.80
2015,06,21,00,25,5.80
2015,06,21,00,26,5.80
2015,06,21,00,27,5.80
2015,06,21,00,28,5.80
2015,06,21,00,29,5.80
2015,06,21,00,30,5.80
2015,06,21,00,33,6.00
2015,06,21,00,34,6.00
2015,06,21,00,35,6.00
2015,06,21,00,36,6.00
2015,06,21,00,37,6.00
2015,06,21,00,38,6.00
2015,06,21,00,39,6.00
2015,06,21,00,40,6.00
2015,06,21,00,41,6.00
2015,06,21,00,42,6.00
2015,06,21,00,43,6.00
2015,06,21,00,44,6.00
2015,06,21,00,45,6.00
2015,06,21,00,46,6.00
2015,06,21,00,47,6.00
2015,06,21,00,48,6.00
2015,06,21,00,49,6.00
2015,06,21,00,50,6.00
2015,06,21,00,51,6.00
2015,06,21,00,52,6.00
2015,06,21,00,53,6.00
2015,06,21,00,54,6.00
2015,06,21,00,55,6.00
2015,06,21,00,56,6.00
2015,06,21,00,57,6.00
2015,06,21,00,58,6.00
2015,06,21,00,59,6.00
2015,06,21,01,00,6.00
2015,06,21,01,02,6.20
2015,06,21,01,03,6.20
2015,06,21,01,04,6.20
2015,06,21,01,05,6.20
2015,06,21,01,06,6.20
2015,06,21,01,07,6.20
2015,06,21,01,08,6.20
2015,06,21,01,09,6.20
2015,06,21,01,10,6.20
2015,06,21,01,11,6.20
2015,06,21,01,12,6.20
2015,06,21,01,13,6.20
2015,06,21,01,14,6.20
2015,06,21,01,15,6.20
2015,06,21,01,16,6.20
2015,06,21,01,17,6.20
2015,06,21,01,18,6.20
2015,06,21,01,19,6.20
2015,06,21,01,20,6.20
2015,06,21,01,21,6.20
2015,06,21,01,22,6.20
2015,06,21,01,23,6.20
2015,06,21,01,24,6.20
2015,06,21,01,25,6.20
2015,06,21,01,26,6.20
2015,06,21,01,27,6.20
2015,06,21,01,28,6.20
2015,06,21,01,29,6.20
2015,06,21,01,30,6.20
2015,06,21,01,33,6.10
2015,06,21,01,34,6.10
2015,06,21,01,35,6.10
2015,06,21,01,36,6.10
2015,06,21,01,37,6.10
2015,06,21,01,38,6.10
2015,06,21,01,39,6.10
2015,06,21,01,40,6.10
2015,06,21,01,41,6.10
2015,06,21,01,42,6.10
2015,06,21,01,43,6.10
2015,06,21,01,44,6.10
2015,06,21,01,45,6.10
2015,06,21,01,46,6.10
2015,06,21,01,47,6.10
2015,06,21,01,48,6.10
2015,06,21,01,49,6.10
2015,06,21,01,50,6.10
2015,06,21,01,51,6.10
2015,06,21,01,52,6.10
2015,06,21,01,53,6.10
2015,06,21,01,54,6.10
2015,06,21,01,55,6.10
2015,06,21,01,56,6.10
2015,06,21,01,57,6.10
2015,06,21,01,58,6.10
2015,06,21,01,59,6.10
2015,06,21,02,00,6.10
2015,06,21,02,02,6.10
2015,06,21,02,03,6.10
2015,06,21,02,04,6.10
2015,06,21,02,05,6.10
2015,06,21,02,06,6.10
2015,06,21,02,07,6.10
2015,06,21,02,08,6.10
2015,06,21,02,09,6.10
2015,06,21,02,10,6.10
2015,06,21,02,11,6.10
2015,06,21,02,12,6.10
2015,06,21,02,13,6.10
2015,06,21,02,14,6.10
2015,06,21,02,15,6.10
2015,06,21,02,16,6.10
2015,06,21,02,17,6.10
2015,06,21,02,18,6.10
2015,06,21,02,19,6.10
2015,06,21,02,20,6.10
2015,06,21,02,21,6.10
2015,06,21,02,22,6.10
2015,06,21,02,23,6.10
2015,06,21,02,24,6.10
2015,06,21,02,25,6.10
2015,06,21,02,26,6.10
2015,06,21,02,27,6.10
2015,06,21,02,28,6.10
2015,06,21,02,29,6.10
2015,06,21,02,30,6.10
2015,06,21,02,32,6.20
2015,06,21,02,33,6.20
2015,06,21,02,34,6.20
2015,06,21,02,35,6.20
2015,06,21,02,36,6.20
2015,06,21,02,37,6.20
2015,06,21,02,38,6.20
2015,06,21,02,39,6.20
2015,06,21,02,40,6.20
2015,06,21,02,41,6.20
2015,06,21,02,42,6.20
2015,06,21,02,43,6.20
2015,06,21,02,44,6.20
2015,06,21,02,45,6.20
2015,06,21,02,46,6.20
2015,06,21,02,47,6.20
2015,06,21,02,48,6.20
2015,06,21,02,49,6.20
2015,06,21,02,50,6.20
2015,06,21,02,51,6.20
2015,06,21,02,52,6.20
2015,06,21,02,53,6.20
2015,06,21,02,54,6.20
2015,06,21,02,55,6.20
2015,06,21,02,56,6.20
2015,06,21,02,57,6.20
2015,06,21,02,58,6.20
2015,06,21,02,59,6.20
2015,06,21,03,00,6.20
2015,06,21,03,03,6.10
2015,06,21,03,04,6.10
2015,06,21,03,05,6.10
2015,06,21,03,06,6.10
2015,06,21,03,07,6.10
2015,06,21,03,08,6.10
2015,06,21,03,09,6.10
2015,06,21,03,10,6.10
2015,06,21,03,11,6.10
2015,06,21,03,12,6.10
2015,06,21,03,13,6.10
2015,06,21,03,14,6.10
2015,06,21,03,15,6.10
2015,06,21,03,16,6.10
2015,06,21,03,17,6.10
2015,06,21,03,18,6.10
2015,06,21,03,19,6.10
2015,06,21,03,20,6.10
2015,06,21,03,21,6.10
2015,06,21,03,22,6.10
2015,06,21,03,23,6.10
2015,06,21,03,24,6.10
2015,06,21,03,25,6.10
2015,06,21,03,26,6.10
2015,06,21,03,27,6.10
2015,06,21,03,28,6.10
2015,06,21,03,29,6.10
2015,06,21,03,30,6.10
2015,06,21,03,32,6.20
2015,06,21,03,33,6.20
2015,06,21,03,34,6.20
2015,06,21,03,35,6.20
2015,06,21,03,36,6.20
2015,06,21,03,37,6.20
2015,06,21,03,38,6.20
2015,06,21,03,39,6.20
2015,06,21,03,40,6.20
2015,06,21,03,41,6.20
2015,06,21,03,42,6.20
2015,06,21,03,43,6.20
2015,06,21,03,44,6.20
2015,06,21,03,45,6.20
2015,06,21,03,46,6.20
2015,06,21,03,47,6.20
2015,06,21,03,48,6.20
2015,06,21,03,49,6.20
2015,06,21,03,50,6.20
2015,06,21,03,51,6.20
2015,06,21,03,52,6.20
2015,06,21,03,53,6.20
2015,06,21,03,54,6.20
2015,06,21,03,55,6.20
2015,06,21,03,56,6.20
2015,06,21,03,57,6.20
2015,06,21,03,58,6.20
2015,06,21,03,59,6.20
2015,06,21,04,00,6.20
2015,06,21,04,03,6.30
2015,06,21,04,04,6.30
2015,06,21,04,05,6.30
2015,06,21,04,06,6.30
2015,06,21,04,07,6.30
2015,06,21,04,08,6.30
2015,06,21,04,09,6.30
2015,06,21,04,10,6.30
2015,06,21,04,11,6.30
2015,06,21,04,12,6.30
2015,06,21,04,13,6.30
2015,06,21,04,14,6.30
2015,06,21,04,15,6.30
2015,06,21,04,16,6.30
2015,06,21,04,17,6.30
2015,06,21,04,18,6.30
2015,06,21,04,19,6.30
2015,06,21,04,20,6.30
2015,06,21,04,21,6.30
2015,06,21,04,22,6.30
2015,06,21,04,23,6.30
2015,06,21,04,24,6.30
2015,06,21,04,25,6.30
2015,06,21,04,26,6.30
2015,06,21,04,27,6.30
2015,06,21,04,28,6.30
2015,06,21,04,29,6.30
2015,06,21,04,30,6.30
2015,06,21,04,32,6.60
2015,06,21,04,33,6.60
2015,06,21,04,34,6.60
2015,06,21,04,35,6.60
2015,06,21,04,36,6.60
2015,06,21,04,37,6.60
2015,06,21,04,38,6.60
2015,06,21,04,39,6.60
2015,06,21,04,40,6.60
2015,06,21,04,41,6.60
2015,06,21,04,42,6.60
2015,06,21,04,43,6.60
2015,06,21,04,44,6.60
2015,06,21,04,45,6.60
2015,06,21,04,46,6.60
2015,06,21,04,47,6.60
2015,06,21,04,48,6.60
2015,06,21,04,49,6.60
2015,06,21,04,50,6.60
2015,06,21,04,51,6.60
2015,06,21,04,52,6.60
2015,06,21,04,53,6.60
2015,06,21,04,54,6.60
2015,06,21,04,55,6.60
2015,06,21,04,56,6.60
2015,06,21,04,57,6.60
2015,06,21,04,58,6.60
2015,06,21,04,59,6.60
2015,06,21,05,00,6.60
2015,06,21,05,03,6.20
2015,06,21,05,04,6.20
2015,06,21,05,05,6.20
2015,06,21,05,06,6.20
2015,06,21,05,07,6.20
2015,06,21,05,08,6.20
2015,06,21,05,09,6.20
2015,06,21,05,10,6.20
2015,06,21,05,11,6.20
2015,06,21,05,12,6.20
2015,06,21,05,13,6.20
2015,06,21,05,14,6.20
2015,06,21,05,15,6.20
2015,06,21,05,16,6.20
2015,06,21,05,17,6.20
2015,06,21,05,18,6.20
2015,06,21,05,19,6.20
2015,06,21,05,20,6.20
2015,06,21,05,21,6.20
2015,06,21,05,22,6.20
2015,06,21,05,23,6.20
2015,06,21,05,24,6.20
2015,06,21,05,25,6.20
2015,06,21,05,26,6.20
2015,06,21,05,27,6.20
2015,06,21,05,28,6.20
2015,06,21,05,29,6.20
2015,06,21,05,30,6.20
2015,06,21,05,34,6.30
2015,06,21,05,35,6.30
2015,06,21,05,36,6.30
2015,06,21,05,37,6.30
2015,06,21,05,38,6.30
2015,06,21,05,39,6.30
2015,06,21,05,40,6.30
2015,06,21,05,41,6.30
2015,06,21,05,42,6.30
2015,06,21,05,43,6.30
2015,06,21,05,44,6.30
2015,06,21,05,45,6.30
2015,06,21,05,46,6.30
2015,06,21,05,47,6.30
2015,06,21,05,48,6.30
2015,06,21,05,49,6.30
2015,06,21,05,50,6.30
2015,06,21,05,51,6.30
2015,06,21,05,52,6.30
2015,06,21,05,53,6.30
2015,06,21,05,54,6.30
2015,06,21,05,55,6.30
2015,06,21,05,56,6.30
2015,06,21,05,57,6.30
2015,06,21,05,58,6.30
2015,06,21,05,59,6.30
2015,06,21,06,00,6.30
2015,06,21,06,02,6.90
2015,06,21,06,03,6.90
2015,06,21,06,04,6.90
2015,06,21,06,05,6.90
2015,06,21,06,06,6.90
2015,06,21,06,07,6.90
2015,06,21,06,08,6.90
2015,06,21,06,09,6.90
2015,06,21,06,10,6.90
2015,06,21,06,11,6.90
2015,06,21,06,12,6.90
2015,06,21,06,13,6.90
2015,06,21,06,14,6.90
2015,06,21,06,15,6.90
2015,06,21,06,16,6.90
2015,06,21,06,17,6.90
2015,06,21,06,18,6.90
2015,06,21,06,19,6.90
2015,06,21,06,20,6.90
2015,06,21,06,21,6.90
2015,06,21,06,22,6.90
2015,06,21,06,23,6.90
2015,06,21,06,24,6.90
2015,06,21,06,25,6.90
2015,06,21,06,26,6.90
2015,06,21,06,27,6.90
2015,06,21,06,28,6.90
2015,06,21,06,29,6.90
2015,06,21,06,30,6.90
2015,06,21,06,33,8.30
2015,06,21,06,34,8.30
2015,06,21,06,35,8.30
2015,06,21,06,36,8.30
2015,06,21,06,37,8.30
2015,06,21,06,38,8.30
2015,06,21,06,39,8.30
2015,06,21,06,40,8.30
2015,06,21,06,41,8.30
2015,06,21,06,42,8.30
2015,06,21,06,43,8.30
2015,06,21,06,44,8.30
2015,06,21,06,45,8.30
2015,06,21,06,46,8.30
2015,06,21,06,47,8.30
2015,06,21,06,48,8.30
2015,06,21,06,49,8.30
2015,06,21,06,50,8.30
2015,06,21,06,51,8.30
2015,06,21,06,52,8.30
2015,06,21,06,53,8.30
2015,06,21,06,54,8.30
2015,06,21,06,55,8.30
2015,06,21,06,56,8.30
2015,06,21,06,57,8.30
2015,06,21,06,58,8.30
2015,06,21,06,59,8.30
2015,06,21,07,00,8.30
2015,06,21,07,03,7.90
2015,06,21,07,04,7.90
2015,06,21,07,05,7.90
2015,06,21,07,06,7.90
2015,06,21,07,07,7.90
2015,06,21,07,08,7.90
2015,06,21,07,09,7.90
2015,06,21,07,10,7.90
2015,06,21,07,11,7.90
2015,06,21,07,12,7.90
2015,06,21,07,13,7.90
2015,06,21,07,14,7.90
2015,06,21,07,15,7.90
2015,06,21,07,16,7.90
2015,06,21,07,17,7.90
2015,06,21,07,18,7.90
2015,06,21,07,19,7.90
2015,06,21,07,20,7.90
2015,06,21,07,21,7.90
2015,06,21,07,22,7.90
2015,06,21,07,23,7.90
2015,06,21,07,24,7.90
2015,06,21,07,25,7.90
2015,06,21,07,26,7.90
2015,06,21,07,27,7.90
2015,06,21,07,28,7.90
2015,06,21,07,29,7.90
2015,06,21,07,30,7.90
2015,06,21,07,33,8.10
2015,06,21,07,34,8.10
2015,06,21,07,35,8.10
2015,06,21,07,36,8.10
2015,06,21,07,37,8.10
2015,06,21,07,38,8.10
2015,06,21,07,39,8.10
2015,06,21,07,40,8.10
2015,06,21,07,41,8.10
2015,06,21,07,42,8.10
2015,06,21,07,43,8.10
2015,06,21,07,44,8.10
2015,06,21,07,45,8.10
2015,06,21,07,46,8.10
2015,06,21,07,47,8.10
2015,06,21,07,48,8.10
2015,06,21,07,49,8.10
2015,06,21,07,50,8.10
2015,06,21,07,51,8.10
2015,06,21,07,52,8.10
2015,06,21,07,53,8.10
2015,06,21,07,54,8.10
2015,06,21,07,55,8.10
2015,06,21,07,56,8.10
2015,06,21,07,57,8.10
2015,06,21,07,58,8.10
2015,06,21,07,59,8.10
2015,06,21,08,00,8.10
2015,06,21,08,02,8.70
2015,06,21,08,03,8.70
2015,06,21,08,04,8.70
2015,06,21,08,05,8.70
2015,06,21,08,06,8.70
2015,06,21,08,07,8.70
2015,06,21,08,08,8.70
2015,06,21,08,09,8.70
2015,06,21,08,10,8.70
2015,06,21,08,11,8.70
2015,06,21,08,12,8.70
2015,06,21,08,13,8.70
2015,06,21,08,14,8.70
2015,06,21,08,15,8.70
2015,06,21,08,16,8.70
2015,06,21,08,17,8.70
2015,06,21,08,18,8.70
2015,06,21,08,19,8.70
2015,06,21,08,20,8.70
2015,06,21,08,21,8.70
2015,06,21,08,22,8.70
2015,06,21,08,23,8.70
2015,06,21,08,24,8.70
2015,06,21,08,25,8.70
2015,06,21,08,26,8.70
2015,06,21,08,27,8.70
2015,06,21,08,28,8.70
2015,06,21,08,29,8.70
2015,06,21,08,30,8.70
2015,06,21,08,33,10.10
2015,06,21,08,34,10.10
2015,06,21,08,35,10.10
2015,06,21,08,36,10.10
2015,06,21,08,37,10.10
2015,06,21,08,38,10.10
2015,06,21,08,39,10.10
2015,06,21,08,40,10.10
2015,06,21,08,41,10.10
2015,06,21,08,42,10.10
2015,06,21,08,43,10.10
2015,06,21,08,44,10.10
2015,06,21,08,45,10.10
2015,06,21,08,46,10.10
2015,06,21,08,47,10.10
2015,06,21,08,48,10.10
2015,06,21,08,49,10.10
2015,06,21,08,50,10.10
2015,06,21,08,51,10.10
2015,06,21,08,52,10.10
2015,06,21,08,53,10.10
2015,06,21,08,54,10.10
2015,06,21,08,55,10.10
2015,06,21,08,56,10.10
2015,06,21,08,57,10.10
2015,06,21,08,58,10.10
2015,06,21,08,59,10.10
2015,06,21,09,00,10.10
2015,06,21,09,04,10.70
2015,06,21,09,05,10.70
2015,06,21,09,06,10.70
2015,06,21,09,07,10.70
2015,06,21,09,08,10.70
2015,06,21,09,09,10.70
2015,06,21,09,10,10.70
2015,06,21,09,11,10.70
2015,06,21,09,12,10.70
2015,06,21,09,13,10.70
2015,06,21,09,14,10.70
2015,06,21,09,15,10.70
2015,06,21,09,16,10.70
2015,06,21,09,17,10.70
2015,06,21,09,18,10.70
2015,06,21,09,19,10.70
2015,06,21,09,20,10.70
2015,06,21,09,21,10.70
2015,06,21,09,22,10.70
2015,06,21,09,23,10.70
2015,06,21,09,24,10.70
2015,06,21,09,25,10.70
2015,06,21,09,26,10.70
2015,06,21,09,27,10.70
2015,06,21,09,28,10.70
2015,06,21,09,29,10.70
2015,06,21,09,30,10.70
2015,06,21,09,32,10.80
2015,06,21,09,33,10.80
2015,06,21,09,34,10.80
2015,06,21,09,35,10.80
2015,06,21,09,36,10.80
2015,06,21,09,37,10.80
2015,06,21,09,38,10.80
2015,06,21,09,39,10.80
2015,06,21,09,40,10.80
2015,06,21,09,41,10.80
2015,06,21,09,42,10.80
2015,06,21,09,43,10.80
2015,06,21,09,44,10.80
2015,06,21,09,45,10.80
2015,06,21,09,46,10.80
2015,06,21,09,47,10.80
2015,06,21,09,48,10.80
2015,06,21,09,49,10.80
2015,06,21,09,50,10.80
2015,06,21,09,51,10.80
2015,06,21,09,52,10.80
2015,06,21,09,53,10.80
2015,06,21,09,54,10.80
2015,06,21,09,55,10.80
2015,06,21,09,56,10.80
2015,06,21,09,57,10.80
2015,06,21,09,58,10.80
2015,06,21,09,59,10.80
2015,06,21,10,00,10.80
2015,06,21,10,02,10.90
2015,06,21,10,03,10.90
2015,06,21,10,04,10.90
2015,06,21,10,05,10.90
2015,06,21,10,06,10.90
2015,06,21,10,07,10.90
2015,06,21,10,08,10.90
2015,06,21,10,09,10.90
2015,06,21,10,10,10.90
2015,06,21,10,11,10.90
2015,06,21,10,12,10.90
2015,06,21,10,13,10.90
2015,06,21,10,14,10.90
2015,06,21,10,15,10.90
2015,06,21,10,16,10.90
2015,06,21,10,17,10.90
2015,06,21,10,18,10.90
2015,06,21,10,19,10.90
2015,06,21,10,20,10.90
2015,06,21,10,21,10.90
2015,06,21,10,22,10.90
2015,06,21,10,23,10.90
2015,06,21,10,24,10.90
2015,06,21,10,25,10.90
2015,06,21,10,26,10.90
2015,06,21,10,27,10.90
2015,06,21,10,28,10.90
2015,06,21,10,29,10.90
2015,06,21,10,30,10.90
2015,06,21,10,32,11.30
2015,06,21,10,33,11.30
2015,06,21,10,34,11.30
2015,06,21,10,35,11.30
2015,06,21,10,36,11.30
2015,06,21,10,37,11.30
2015,06,21,10,38,11.30
2015,06,21,10,39,11.30
2015,06,21,10,40,11.30
2015,06,21,10,41,11.30
2015,06,21,10,42,11.30
2015,06,21,10,43,11.30
2015,06,21,10,44,11.30
2015,06,21,10,45,11.30
2015,06,21,10,46,11.30
2015,06,21,10,47,11.30
2015,06,21,10,48,11.30
2015,06,21,10,49,11.30
2015,06,21,10,50,11.30
2015,06,21,10,51,11.30
2015,06,21,10,52,11.30
2015,06,21,10,53,11.30
2015,06,21,10,54,11.30
2015,06,21,10,55,11.30
2015,06,21,10,56,11.30
2015,06,21,10,57,11.30
2015,06,21,10,58,11.30
2015,06,21,10,59,11.30
2015,06,21,11,00,11.30
2015,06,21,11,02,11.90
2015,06,21,11,03,11.90
2015,06,21,11,04,11.90
2015,06,21,11,05,11.90
2015,06,21,11,06,11.90
2015,06,21,11,07,11.90
2015,06,21,11,08,11.90
2015,06,21,11,09,11.90
2015,06,21,11,10,11.90
2015,06,21,11,11,11.90
2015,06,21,11,12,11.90
2015,06,21,11,13,11.90
2015,06,21,11,14,11.90
2015,06,21,11,15,11.90
2015,06,21,11,16,11.90
2015,06,21,11,17,11.90
2015,06,21,11,18,11.90
2015,06,21,11,19,11.90
2015,06,21,11,20,11.90
2015,06,21,11,21,11.90
2015,06,21,11,22,11.90
2015,06,21,11,23,11.90
2015,06,21,11,24,11.90
2015,06,21,11,25,11.90
2015,06,21,11,26,11.90
2015,06,21,11,27,11.90
2015,06,21,11,28,11.90
2015,06,21,11,29,11.90
2015,06,21,11,30,11.90
2015,06,21,11,32,12.10
2015,06,21,11,33,12.10
2015,06,21,11,34,12.10
2015,06,21,11,35,12.10
2015,06,21,11,36,12.10
2015,06,21,11,37,12.10
2015,06,21,11,38,12.10
2015,06,21,11,39,12.10
2015,06,21,11,40,12.10
2015,06,21,11,41,12.10
2015,06,21,11,42,12.10
2015,06,21,11,43,12.10
2015,06,21,11,44,12.10
2015,06,21,11,45,12.10
2015,06,21,11,46,12.10
2015,06,21,11,47,12.10
2015,06,21,11,48,12.10
2015,06,21,11,49,12.10
2015,06,21,11,50,12.10
2015,06,21,11,51,12.10
2015,06,21,11,52,12.10
2015,06,21,11,53,12.10
2015,06,21,11,54,12.10
2015,06,21,11,55,12.10
2015,06,21,11,56,12.10
2015,06,21,11,57,12.10
2015,06,21,11,58,12.10
2015,06,21,11,59,12.10
2015,06,21,12,00,12.10
2015,06,21,12,01,11.80
2015,06,21,12,02,11.80
2015,06,21,12,03,11.80
2015,06,21,12,04,11.80
2015,06,21,12,05,11.80
2015,06,21,12,06,11.80
2015,06,21,12,07,11.80
2015,06,21,12,08,11.80
2015,06,21,12,09,11.80
2015,06,21,12,10,11.80
2015,06,21,12,11,11.80
2015,06,21,12,12,11.80
2015,06,21,12,13,11.80
2015,06,21,12,14,11.80
2015,06,21,12,15,11.80
2015,06,21,12,16,11.80
2015,06,21,12,17,11.80
2015,06,21,12,18,11.80
2015,06,21,12,19,11.80
2015,06,21,12,20,11.80
2015,06,21,12,21,11.80
2015,06,21,12,22,11.80
2015,06,21,12,23,11.80
2015,06,21,12,24,11.80
2015,06,21,12,25,11.80
2015,06,21,12,26,11.80
2015,06,21,12,27,11.80
2015,06,21,12,28,11.80
2015,06,21,12,29,11.80
2015,06,21,12,30,11.80
2015,06,21,12,32,11.60
2015,06,21,12,33,11.60
2015,06,21,12,34,11.60
2015,06,21,12,35,11.60
2015,06,21,12,36,11.60
2015,06,21,12,37,11.60
2015,06,21,12,38,11.60
2015,06,21,12,39,11.60
2015,06,21,12,40,11.60
2015,06,21,12,41,11.60
2015,06,21,12,42,11.60
2015,06,21,12,43,11.60
2015,06,21,12,44,11.60
2015,06,21,12,45,11.60
2015,06,21,12,46,11.60
2015,06,21,12,47,11.60
2015,06,21,12,48,11.60
2015,06,21,12,49,11.60
2015,06,21,12,50,11.60
2015,06,21,12,51,11.60
2015,06,21,12,52,11.60
2015,06,21,12,53,11.60
2015,06,21,12,54,11.60
2015,06,21,12,55,11.60
2015,06,21,12,56,11.60
2015,06,21,12,57,11.60
2015,06,21,12,58,11.60
2015,06,21,12,59,11.60
2015,06,21,13,00,11.60
2015,06,21,13,02,10.80
2015,06,21,13,03,10.80
2015,06,21,13,04,10.80
2015,06,21,13,05,10.80
2015,06,21,13,06,10.80
2015,06,21,13,07,10.80
2015,06,21,13,08,10.80
2015,06,21,13,09,10.80
2015,06,21,13,10,10.80
2015,06,21,13,11,10.80
2015,06,21,13,12,10.80
2015,06,21,13,13,10.80
2015,06,21,13,14,10.80
2015,06,21,13,15,10.80
2015,06,21,13,16,10.80
2015,06,21,13,17,10.80
2015,06,21,13,18,10.80
2015,06,21,13,19,10.80
2015,06,21,13,20,10.80
2015,06,21,13,21,10.80
2015,06,21,13,22,10.80
2015,06,21,13,23,10.80
2015,06,21,13,24,10.80
2015,06,21,13,25,10.80
2015,06,21,13,26,10.80
2015,06,21,13,27,10.80
2015,06,21,13,28,10.80
2015,06,21,13,29,10.80
2015,06,21,13,30,10.80
2015,06,21,13,33,10.80
2015,06,21,13,34,10.80
2015,06,21,13,35,10.80
2015,06,21,13,36,10.80
2015,06,21,13,37,10.80
2015,06,21,13,38,10.80
2015,06,21,13,39,10.80
2015,06,21,13,40,10.80
2015,06,21,13,41,10.80
2015,06,21,13,42,10.80
2015,06,21,13,43,10.80
2015,06,21,13,44,10.80
2015,06,21,13,45,10.80
2015,06,21,13,46,10.80
2015,06,21,13,47,10.80
2015,06,21,13,48,10.80
2015,06,21,13,49,10.80
2015,06,21,13,50,10.80
2015,06,21,13,51,10.80
2015,06,21,13,52,10.80
2015,06,21,13,53,10.80
2015,06,21,13,54,10.80
2015,06,21,13,55,10.80
2015,06,21,13,56,10.80
2015,06,21,13,57,10.80
2015,06,21,13,58,10.80
2015,06,21,13,59,10.80
2015,06,21,14,00,10.80
2015,06,21,14,02,11.30
2015,06,21,14,03,11.30
2015,06,21,14,04,11.30
2015,06,21,14,05,11.30
2015,06,21,14,06,11.30
2015,06,21,14,07,11.30
2015,06,21,14,08,11.30
2015,06,21,14,09,11.30
2015,06,21,14,10,11.30
2015,06,21,14,11,11.30
2015,06,21,14,12,11.30
2015,06,21,14,13,11.30
2015,06,21,14,14,11.30
2015,06,21,14,15,11.30
2015,06,21,14,16,11.30
2015,06,21,14,17,11.30
2015,06,21,14,18,11.30
2015,06,21,14,19,11.30
2015,06,21,14,20,11.30
2015,06,21,14,21,11.30
2015,06,21,14,22,11.30
2015,06,21,14,23,11.30
2015,06,21,14,24,11.30
2015,06,21,14,25,11.30
2015,06,21,14,26,11.30
2015,06,21,14,27,11.30
2015,06,21,14,28,11.30
2015,06,21,14,29,11.30
2015,06,21,14,30,11.30
2015,06,21,14,33,12.10
2015,06,21,14,34,12.10
2015,06,21,14,35,12.10
2015,06,21,14,36,12.10
2015,06,21,14,37,12.10
2015,06,21,14,38,12.10
2015,06,21,14,39,12.10
2015,06,21,14,40,12.10
2015,06,21,14,41,12.10
2015,06,21,14,42,12.10
2015,06,21,14,43,12.10
2015,06,21,14,44,12.10
2015,06,21,14,45,12.10
2015,06,21,14,46,12.10
2015,06,21,14,47,12.10
2015,06,21,14,48,12.10
2015,06,21,14,49,12.10
2015,06,21,14,50,12.10
2015,06,21,14,51,12.10
2015,06,21,14,52,12.10
2015,06,21,14,53,12.10
2015,06,21,14,54,12.10
2015,06,21,14,55,12.10
2015,06,21,14,56,12.10
2015,06,21,14,57,12.10
2015,06,21,14,58,12.10
2015,06,21,14,59,12.10
2015,06,21,15,00,12.10
2015,06,21,15,02,12.40
2015,06,21,15,03,12.40
2015,06,21,15,04,12.40
2015,06,21,15,05,12.40
2015,06,21,15,06,12.40
2015,06,21,15,07,12.40
2015,06,21,15,08,12.40
2015,06,21,15,09,12.40
2015,06,21,15,10,12.40
2015,06,21,15,11,12.40
2015,06,21,15,12,12.40
2015,06,21,15,13,12.40
2015,06,21,15,14,12.40
2015,06,21,15,15,12.40
2015,06,21,15,16,12.40
2015,06,21,15,17,12.40
2015,06,21,15,18,12.40
2015,06,21,15,19,12.40
2015,06,21,15,20,12.40
2015,06,21,15,21,12.40
2015,06,21,15,22,12.40
2015,06,21,15,23,12.40
2015,06,21,15,24,12.40
2015,06,21,15,25,12.40
2015,06,21,15,26,12.40
2015,06,21,15,27,12.40
2015,06,21,15,28,12.40
2015,06,21,15,29,12.40
2015,06,21,15,30,12.40
2015,06,21,15,33,12.60
2015,06,21,15,34,12.60
2015,06,21,15,35,12.60
2015,06,21,15,36,12.60
2015,06,21,15,37,12.60
2015,06,21,15,38,12.60
2015,06,21,15,39,12.60
2015,06,21,15,40,12.60
2015,06,21,15,41,12.60
2015,06,21,15,42,12.60
2015,06,21,15,43,12.60
2015,06,21,15,44,12.60
2015,06,21,15,45,12.60
2015,06,21,15,46,12.60
2015,06,21,15,47,12.60
2015,06,21,15,48,12.60
2015,06,21,15,49,12.60
2015,06,21,15,50,12.60
2015,06,21,15,51,12.60
2015,06,21,15,52,12.60
2015,06,21,15,53,12.60
2015,06,21,15,54,12.60
2015,06,21,15,55,12.60
2015,06,21,15,56,12.60
2015,06,21,15,57,12.60
2015,06,21,15,58,12.60
2015,06,21,15,59,12.60
2015,06,21,16,00,12.60
2015,06,21,16,03,12.70
2015,06,21,16,04,12.70
2015,06,21,16,05,12.70
2015,06,21,16,06,12.70
2015,06,21,16,07,12.70
2015,06,21,16,08,12.70
2015,06,21,16,09,12.70
2015,06,21,16,10,12.70
2015,06,21,16,11,12.70
2015,06,21,16,12,12.70
2015,06,21,16,13,12.70
2015,06,21,16,14,12.70
2015,06,21,16,15,12.70
2015,06,21,16,16,12.70
2015,06,21,16,17,12.70
2015,06,21,16,18,12.70
2015,06,21,16,19,12.70
2015,06,21,16,20,12.70
2015,06,21,16,21,12.70
2015,06,21,16,22,12.70
2015,06,21,16,23,12.70
2015,06,21,16,24,12.70
2015,06,21,16,25,12.70
2015,06,21,16,26,12.70
2015,06,21,16,27,12.70
2015,06,21,16,28,12.70
2015,06,21,16,29,12.70
2015,06,21,16,30,12.70
2015,06,21,16,33,12.80
2015,06,21,16,34,12.80
2015,06,21,16,35,12.80
2015,06,21,16,36,12.80
2015,06,21,16,37,12.80
2015,06,21,16,38,12.80
2015,06,21,16,39,12.80
2015,06,21,16,40,12.80
2015,06,21,16,41,12.80
2015,06,21,16,42,12.80
2015,06,21,16,43,12.80
2015,06,21,16,44,12.80
2015,06,21,16,45,12.80
2015,06,21,16,46,12.80
2015,06,21,16,47,12.80
2015,06,21,16,48,12.80
2015,06,21,16,49,12.80
2015,06,21,16,50,12.80
2015,06,21,16,51,12.80
2015,06,21,16,52,12.80
2015,06,21,16,53,12.80
2015,06,21,16,54,12.80
2015,06,21,16,55,12.80
2015,06,21,16,56,12.80
2015,06,21,16,57,12.80
2015,06,21,16,58,12.80
2015,06,21,16,59,12.80
2015,06,21,17,00,12.80
2015,06,21,17,03,12.70
2015,06,21,17,04,12.70
2015,06,21,17,05,12.70
2015,06,21,17,06,12.70
2015,06,21,17,07,12.70
2015,06,21,17,08,12.70
2015,06,21,17,09,12.70
2015,06,21,17,10,12.70
2015,06,21,17,11,12.70
2015,06,21,17,12,12.70
2015,06,21,17,13,12.70
2015,06,21,17,14,12.70
2015,06,21,17,15,12.70
2015,06,21,17,16,12.70
2015,06,21,17,17,12.70
2015,06,21,17,18,12.70
2015,06,21,17,19,12.70
2015,06,21,17,20,12.70
2015,06,21,17,21,12.70
2015,06,21,17,22,12.70
2015,06,21,17,23,12.70
2015,06,21,17,24,12.70
2015,06,21,17,25,12.70
2015,06,21,17,26,12.70
2015,06,21,17,27,12.70
2015,06,21,17,28,12.70
2015,06,21,17,29,12.70
2015,06,21,17,30,12.70
2015,06,21,17,33,12.80
2015,06,21,17,34,12.80
2015,06,21,17,35,12.80
2015,06,21,17,36,12.80
2015,06,21,17,37,12.80
2015,06,21,17,38,12.80
2015,06,21,17,39,12.80
2015,06,21,17,40,12.80
2015,06,21,17,41,12.80
2015,06,21,17,42,12.80
2015,06,21,17,43,12.80
2015,06,21,17,44,12.80
2015,06,21,17,45,12.80
2015,06,21,17,46,12.80
2015,06,21,17,47,12.80
2015,06,21,17,48,12.80
2015,06,21,17,49,12.80
2015,06,21,17,50,12.80
2015,06,21,17,51,12.80
2015,06,21,17,52,12.80
2015,06,21,17,53,12.80
2015,06,21,17,54,12.80
2015,06,21,17,55,12.80
2015,06,21,17,56,12.80
2015,06,21,17,57,12.80
2015,06,21,17,58,12.80
2015,06,21,17,59,12.80
2015,06,21,18,00,12.80
2015,06,21,18,03,13.10
2015,06,21,18,04,13.10
2015,06,21,18,05,13.10
2015,06,21,18,06,13.10
2015,06,21,18,07,13.10
2015,06,21,18,08,13.10
2015,06,21,18,09,13.10
2015,06,21,18,10,13.10
2015,06,21,18,11,13.10
2015,06,21,18,12,13.10
2015,06,21,18,13,13.10
2015,06,21,18,14,13.10
2015,06,21,18,15,13.10
2015,06,21,18,16,13.10
2015,06,21,18,17,13.10
2015,06,21,18,18,13.10
2015,06,21,18,19,13.10
2015,06,21,18,20,13.10
2015,06,21,18,21,13.10
2015,06,21,18,22,13.10
2015,06,21,18,23,13.10
2015,06,21,18,24,13.10
2015,06,21,18,25,13.10
2015,06,21,18,26,13.10
2015,06,21,18,27,13.10
2015,06,21,18,28,13.10
2015,06,21,18,29,13.10
2015,06,21,18,30,13.10
2015,06,21,18,33,12.70
2015,06,21,18,34,12.70
2015,06,21,18,35,12.70
2015,06,21,18,36,12.70
2015,06,21,18,37,12.70
2015,06,21,18,38,12.70
2015,06,21,18,39,12.70